{"data":{"norad_id":58166,"intl_designator":"2023-166S","name":"STARLINK-30789","alt_names":[],"object_type":"PAYLOAD","status":"ACTIVE","operator":null,"country":"US","launch_date":"2023-10-29","launch_site_code":"AFWTR","launch_vehicle":null,"mission":null,"orbit_class":"UNKNOWN","rcs_meters":null,"size_class":null,"mass_kg":null,"dimensions":null,"purposes":["comms"],"wikipedia_slug":null,"has_3d_model":false,"image_url":null,"decayed_at":null,"tle_current":{"epoch":"2026-05-24T22:34:56.402976Z","epoch_age_seconds":74026,"freshness":"FRESH","line1":"1 58166U 23166S   26144.94093059 -.00000009  00000+0  11814-4 0  9998","line2":"2 58166  53.1605 225.4389 0000919 104.4297 255.6806 15.30193436144856","mean_motion":15.30193436,"eccentricity":9.19e-5,"inclination_deg":53.1605,"raan_deg":225.4389,"arg_perigee_deg":104.4297,"mean_anomaly_deg":255.6806,"bstar":1.1814e-5,"rev_number":14485,"period_min":94.105749385792,"perigee_km":474.60484355389,"apogee_km":475.86449326654,"semimajor_km":6853.3716684102,"source":"CELESTRAK","updated_at":"2026-05-25T13:38:18.564477Z"}}}